Jacksonville, FL

11:46 PM EST on February 25, 2017 (GMT -0500)
Cecil

Weather History for KVQQ - February, 2013

Change the Weather History Date:

Saturday, February 16, 2013

  Actual Average (KNIP) Record (KNIP)
Temperature  
Mean Temperature 48 °F -  
Max Temperature 59 °F 66 °F 80 °F (2001)
Min Temperature 37 °F 49 °F 37 °F (2007)
Degree Days  
Heating Degree Days 17    
Moisture  
Dew Point 36 °F    
Average Humidity 80    
Maximum Humidity 100    
Minimum Humidity 42    
Precipitation  
Precipitation 0.00 in - - ()
Sea Level Pressure  
Sea Level Pressure 30.02 in    
Wind  
Wind Speed 4 mph (NW)    
Max Wind Speed 18 mph    
Max Gust Speed 29 mph    
Visibility 7 miles    
Events Rain    
Averages and records for this station are not official NWS values.
T = Trace of Precipitation, MM = Missing Value Source: NWS Daily Summary

Daily Weather History Graph

Daily Weather History Graph

Search for Another Location

Airport or City:

Trip Planner

Search our weather history database for the weather conditions in past years. The results will help you decide how hot, cold, wet, or windy it might be!

Date:

Astronomy

Feb. 16, 2013 Rise Set
Actual Time 7:06 AM EST 6:17 PM EST
Civil Twilight 6:42 AM EST 6:41 PM EST
Nautical Twilight 6:13 AM EST 7:09 PM EST
Astronomical Twilight 5:46 AM EST 7:37 PM EST
Moon 10:49 AM EST (2/16) No Moon Set
Length of Visible Light 11h 59m
Length of Day
11h 10m
Waxing Crescent, 39% of the Moon is Illuminated
Feb 16
Waxing Crescent
Feb 17
First Quarter
Feb 25
Full
Mar 4
Last Quarter
Mar 11
New

Hourly Weather History & Observations

Time (EST) Temp. Windchill Dew Point Humidity Pressure Visibility Wind Dir Wind Speed Gust Speed Precip Events Conditions
12:15 AM 37.4 °F - 37.4 °F 100% 30.01 in 2.5 mi Calm Calm - N/A   Clear
12:35 AM 37.4 °F - 37.4 °F 100% 30.01 in 2.5 mi Calm Calm - N/A   Clear
12:55 AM 39.2 °F - 39.2 °F 100% 30.02 in 3.0 mi Calm Calm - N/A   Clear
1:15 AM 37.4 °F - 37.4 °F 100% 30.01 in 3.0 mi Calm Calm - N/A   Clear
1:35 AM 39.2 °F - 39.2 °F 100% 30.01 in 4.0 mi Calm Calm - N/A   Clear
1:55 AM 39.2 °F - 39.2 °F 100% 29.99 in 2.5 mi Calm Calm - N/A   Clear
2:15 AM 39.2 °F - 39.2 °F 100% 29.98 in 2.5 mi Calm Calm - N/A   Clear
2:35 AM 39.2 °F - 39.2 °F 100% 29.98 in 2.5 mi Calm Calm - N/A   Clear
2:55 AM 39.2 °F - 39.2 °F 100% 29.97 in 3.0 mi Calm Calm - N/A   Clear
3:15 AM 39.2 °F - 39.2 °F 100% 29.97 in 2.0 mi Calm Calm - N/A   Clear
3:35 AM 41.0 °F - 41.0 °F 100% 29.97 in 2.5 mi Calm Calm - N/A   Clear
3:55 AM 39.2 °F - 39.2 °F 100% 29.95 in 1.0 mi Calm Calm - N/A   Clear
4:15 AM 41.0 °F - 41.0 °F 100% 29.95 in 3.0 mi Calm Calm - N/A   Clear
4:35 AM 41.0 °F - 41.0 °F 100% 29.95 in 3.0 mi Calm Calm - N/A   Clear
4:55 AM 41.0 °F - 41.0 °F 100% 29.95 in 3.0 mi Calm Calm - N/A   Clear
5:15 AM 41.0 °F - 41.0 °F 100% 29.95 in 5.0 mi Calm Calm - N/A   Clear
5:35 AM 41.0 °F - 41.0 °F 100% 29.95 in 4.0 mi Calm Calm - N/A   Clear
6:15 AM 41.0 °F - 41.0 °F 100% 29.95 in 3.0 mi Calm Calm - N/A   Clear
6:35 AM 41.0 °F - 41.0 °F 100% 29.94 in 4.0 mi Calm Calm - N/A   Clear
8:50 AM 46.4 °F 44.3 °F 42.8 °F 87% 29.95 in 10.0 mi Variable 4.6 mph - N/A   Clear
9:50 AM 50.0 °F - 42.8 °F 76% 29.96 in 10.0 mi Variable 5.8 mph - N/A   Clear
10:50 AM 53.6 °F - 41.0 °F 62% 29.96 in 10.0 mi Variable 5.8 mph - N/A   Clear
11:50 AM 55.4 °F - 42.8 °F 63% 29.97 in 10.0 mi WNW 11.5 mph 19.6 mph N/A   Clear
12:50 PM 59.0 °F - 37.4 °F 45% 29.96 in 10.0 mi NW 17.3 mph 26.5 mph N/A   Mostly Cloudy
1:50 PM 51.8 °F - 37.4 °F 58% 29.98 in 10.0 mi NNW 18.4 mph 28.8 mph N/A   Mostly Cloudy
2:50 PM 44.6 °F 38.8 °F 39.2 °F 81% 29.99 in 10.0 mi NW 11.5 mph - N/A   Mostly Cloudy
3:50 PM 50.0 °F - 39.2 °F 66% 29.97 in 10.0 mi West 11.5 mph - N/A   Partly Cloudy
4:50 PM 51.8 °F - 35.6 °F 54% 29.96 in 10.0 mi West 13.8 mph - N/A   Clear
5:50 PM 46.4 °F 41.1 °F 41.0 °F 81% 29.99 in 8.0 mi NNW 11.5 mph - N/A Rain Light Rain
7:50 PM 42.8 °F - 39.2 °F 87% 30.04 in 10.0 mi Calm Calm - N/A   Partly Cloudy
8:15 PM 44.6 °F 38.8 °F 37.4 °F 76% 30.05 in 10.0 mi WNW 11.5 mph - N/A   Scattered Clouds
8:35 PM 44.6 °F 38.4 °F 35.6 °F 71% 30.07 in 10.0 mi WNW 12.7 mph 16.1 mph N/A   Partly Cloudy
8:55 PM 42.8 °F 36.2 °F 32.0 °F 66% 30.08 in 10.0 mi WNW 12.7 mph - N/A   Clear
9:15 PM 42.8 °F 36.6 °F 32.0 °F 66% 30.09 in 10.0 mi WNW 11.5 mph - N/A   Clear
9:35 PM 41.0 °F 33.9 °F 28.4 °F 61% 30.11 in 10.0 mi WNW 12.7 mph - N/A   Clear
9:55 PM 41.0 °F 33.5 °F 26.6 °F 57% 30.12 in 10.0 mi WNW 13.8 mph 19.6 mph N/A   Clear
10:15 PM 41.0 °F 33.9 °F 24.8 °F 53% 30.13 in 10.0 mi WNW 12.7 mph 19.6 mph N/A   Clear
10:35 PM 41.0 °F 34.7 °F 23.0 °F 49% 30.14 in 10.0 mi WNW 10.4 mph 17.3 mph N/A   Clear
10:55 PM 39.2 °F 32.5 °F 23.0 °F 52% 30.14 in 10.0 mi NW 10.4 mph - N/A   Clear
11:15 PM 39.2 °F 32.0 °F 21.2 °F 49% 30.15 in 10.0 mi NW 11.5 mph - N/A   Clear
11:35 PM 39.2 °F 31.6 °F 19.4 °F 45% 30.16 in 10.0 mi NW 12.7 mph - N/A   Clear
11:55 PM 39.2 °F 32.5 °F 17.6 °F 42% 30.16 in 10.0 mi NW 10.4 mph - N/A   Clear